Simultaneous Nadir Overpasses (SNOs) Predictions

Prediction of SNOs between GOES-17 and METOP-B Satellite Orbit:

Table of predicted SNOs for the next 14.0 days since TLE Epoch: 2/10/2024
Index Date Time (GOES-17) GOES-17 Lat,Lon METOP-B Lat,Lon Distance(km) Time Diff (sec)
1 02/11/2024 04:40:13 -0.01,-104.69 -0.79,-108.20 399.62 80
2 02/12/2024 04:16:55 -0.01,-104.69 0.29,-103.21 168.67 80
3 02/13/2024 16:35:49 0.01,-104.70 0.70,-107.79 351.87 80
4 02/14/2024 16:17:51 0.01,-104.71 -0.38,-102.80 216.69 80
5 02/16/2024 04:36:54 -0.01,-104.71 -0.60,-107.43 309.26 80
6 02/17/2024 04:13:36 -0.01,-104.71 0.49,-102.44 258.97 80
7 02/18/2024 16:32:29 0.01,-104.72 0.54,-107.01 262.02 80
8 02/19/2024 16:14:31 0.01,-104.72 -0.61,-102.04 306.52 80
9 02/21/2024 04:33:34 -0.01,-104.72 -0.41,-106.65 219.03 80
10 02/22/2024 04:10:15 -0.01,-104.73 0.69,-101.66 349.56 80
11 02/23/2024 16:29:09 0.01,-104.74 0.34,-106.24 171.05 80
